Reflectivity
-6 -19 -20 -20 -20 -20 -20 -20 -20 -20 -20 -20 -20 -20 -20 -20 -20 -20 -20 -20 -20 -20 -20 -20 -20 -20 -20 -20 -20 -20 -20 -20 -20 -20 -20 -20 -20 -20 -20 -20 -20 -20 -3
-14 -20 -20 -20 -20 -20 -20 -20 -20 -20 -20 -20 -20 -20 -20 -20 -20 -20 -20 -20 -20 -20 -20 -20 -20 -20 -20 -20 -20 -20 -20 -20 -20 -20 -20 -20 -20 -20 -20 -20 -20 -1 -6
-20 -20 -20 -20 -20 -20 -20 -20 -20 -20 -20 -20 -20 -20 -20 -20 -20 -20 -20 -20 -20 -20 -20 -20 -20 -20 -20 -20 -20 -20 -20 -20 -20 -20 -20 -20 -20 -20 -20 -20 -20 -20 -20
-20 -20 -20 -20 -20 -20 -20 -20 -20 -20 -20 -20 -20 -20 -20 -20 -20 -20 -20 -20 -20 -20 -20 -20 -20 -20 -20 -20 -20 -20 -20 -20 -20 -20 -20 -20 -20 -20 -20 -20 -20 -20 -20
-20 -20 -20 -20 -20 -20 -20 -20 -20 -20 -20 -20 -20 -20 -20 -20 -20 -20 -20 -20 -20 -20 -20 -20 -20 -20 -20 -20 -20 -20 -20 -20 -20 -20 -20 -20 -20 -20 -20 -20 -20 -20 -18
-20 -20 -20 -20 -20 -20 -20 -20 -20 -20 -20 -20 -20 -20 -20 -20 -20 -20 -20 -20 -20 -20 -20 -20 -20 -20 -20 -20 -20 -20 -20 -20 -20 -20 -19 -20 -20 -20 -20 -20 -20 -20 -20
-20 -20 -20 -20 -20 -20 -20 -20 -20 -20 -20 -20 -20 -20 -20 -20 -20 -20 -20 -20 -20 -20 -20 -20 -20 -20 -20 -20 -20 -20 -20 -20 -20 -20 -16 -20 -20 -20 -20 -20 -20 -20 -20
-20 -20 -20 -20 -20 -20 -20 -20 -20 -20 -20 -20 -20 -20 -20 -20 -20 -20 -20 -20 -20 -20 -20 -20 -20 -20 -20 -20 -20 -20 -20 -20 -20 -20 -8 -13 -20 -20 -20 -20 -20 -20 -20
-20 -20 -20 -20 -20 -20 -20 -20 -20 -20 -20 -20 -20 -20 -20 -20 -20 -20 -20 -20 -20 -20 -20 -20 -20 -20 -20 -20 -20 -20 -20 -20 -20 -20 -20 -20 -20 -20 -20 -20 -20 -20 -20
-20 -20 -20 -20 -20 -20 -20 -20 -20 -20 -20 -20 -20 -20 -20 -20 -20 -20 -20 -20 -20 -20 -20 -20 -20 -20 -20 -20 -20 -20 -20 -20 -20 -20 -20 -20 -20 -20 -20 -20 -20 -20 -20
-20 -20 -20 -20 -20 -20 -20 -20 -20 -20 -20 -20 -20 -20 -20 -20 -20 -20 -20 -20 -20 -20 -20 -20 -20 -20 -20 -20 -20 -20 -20 -20 -20 -20 -20 -12 -7 -20 12 -20 -20 -20 -20
-20 -20 -20 -20 -20 -20 -20 -20 -20 -20 -20 -20 -20 -20 -20 -20 -20 -20 -20 -20 -20 -20 -20 -20 -20 -20 -20 -20 -20 -20 -20 -20 -20 -20 -20 -20 16 -7 -18 -20 -20 -20 -20
-20 -20 -20 -20 -20 -20 -20 -20 -20 -20 -20 -20 -20 -20 -20 -20 -20 -20 -20 -20 -20 -20 -20 -20 -20 -20 -20 -20 -20 -20 -20 -20 -20 -20 -20 -7 -16 -13 -20 -20 -20 -20 -20
-20 -20 -20 -20 -20 -20 -20 -20 -20 -20 -20 -20 -20 -20 -20 -20 -20 -20 -20 -20 -20 -20 -20 -20 -20 -20 -20 -20 -20 -20 -20 -20 -20 -20 -20 4 -14 11 -20 -20 -20 -20 -20
-20 -20 -20 -20 -20 -20 -20 -20 -20 -20 -20 -20 -20 -20 -20 -20 -20 -20 -20 -20 -20 -20 -20 -20 -20 -20 -20 -20 -20 -20 -20 -20 -20 -20 -20 -20 -20 -20 -8 -0 -20 -20 -20
-20 -20 -20 -20 -20 -20 -20 -20 -20 -20 -20 -20 -20 -20 -20 -20 -20 -20 -20 -20 -20 -20 -20 -20 -20 -20 -20 -20 -20 -20 -20 -20 -20 -20 -20 -20 -20 -20 -20 26 11 -16 -20
-20 -20 -20 -20 -20 -20 -20 -20 -5 -20 -20 -20 -20 -20 -20 -20 -20 -20 -20 -20 -20 -20 -20 -20 -20 -20 -20 -20 -20 -20 -20 -20 -20 -20 -20 -20 -20 -20 -20 -20 -11 23 19
-20 -20 -20 -20 -20 -20 -20 -20 -20 -2 -20 -20 -20 -20 -20 -20 -20 -20 -20 -20 -20 -20 -20 -20 -20 -20 -20 -20 -20 -20 -20 -20 -20 -20 -20 -20 -20 -20 -20 -20 -20 17 -2
-20 -20 -20 -20 -20 -20 -20 -20 -20 -20 -20 -20 -20 -20 -20 -12 2 -20 -20 -20 -20 -20 -20 -20 -20 -20 -20 -20 -20 -20 -20 -20 -20 -20 -20 -20 -20 -20 -20 -20 -13 -20 -15
-20 -20 -20 -20 -20 -20 -20 -20 -20 -20 -20 -20 -20 -20 -20 -20 -20 -20 -20 -20 -20 -20 -20 -20 -20 -20 -20 -20 -20 -20 -20 -20 -20 -20 -20 -20 -20 -20 -20 -20 -20 -20 -18
-20 -20 -20 -20 -20 -20 -20 -20 -20 -20 -20 -20 -20 -20 -20 -20 -20 -20 -20 -20 -20 -20 -20 -20 -20 -20 -20 -20 -20 -20 -20 -20 -20 -20 -20 -20 -15 -20 -20 -20 -20 -20 -20
-20 -20 -20 -20 -20 -20 -20 -20 -20 -20 -15 -20 -20 -20 -20 -20 -20 -20 -20 -17 9 -20 -12 -20 -20 -20 -20 -20 -20 -20 -20 -20 -20 -20 -20 -20 -20 -20 -20 -20 -20 -20 -20
-20 -20 -20 -20 -20 -20 -20 -20 -20 -15 -20 2 11 -14 -7 -13 -15 -20 -19 11 -16 9 8 -20 -8 -20 -20 -20 -20 -20 -20 -20 -20 -20 -20 -20 -20 -20 -20 -20 -20 -20 -20
-20 -20 -20 -20 -20 -20 -20 -20 -20 -20 -20 -20 -20 -12 7 -8 1 5 -20 -13 13 -5 -18 -20 -2 -20 -20 -20 -20 -20 -20 -20 -20 -20 -20 -19 -20 -13 -20 -20 -20 -20 -20
-20 -20 -20 -20 -20 -20 -20 -20 -20 -20 -20 -20 -20 -20 -13 -4 3 8 31 30 29 -9 -5 13 -20 -19 -20 -20 -20 -20 -20 -20 -20 -20 -20 -20 -20 -20 -20 -20 -20 -20 -20
-20 -20 -20 -20 -20 -20 -20 -20 -20 -20 -20 -20 -20 -20 -20 -20 5 28 28 32 21 1 25 -20 -5 -20 -20 -19 -20 -20 -20 -20 -20 -20 -20 -20 -20 -20 -20 -20 -20 -20 -20
Wind_Speed
4 7 12 13 15 15 16 16 17 16 15 15 14 14 14 14 14 14 13 12 13 12 12 11 11 11 12 12 12 10 10 10 10 11 12 14 14 15 17 15 12 11 12
14 11 13 14 15 16 16 16 16 16 15 15 14 14 14 13 13 13 12 11 11 11 11 10 10 9 10 9 8 8 9 8 8 8 11 13 14 14 14 14 11 10 12
14 13 13 13 15 16 16 17 17 17 16 15 14 14 13 13 12 12 11 10 10 10 10 9 9 9 8 7 7 6 7 5 5 4 4 4 7 12 12 11 9 10 12
14 12 12 13 15 16 16 16 16 16 15 15 14 14 13 13 12 12 10 10 9 9 9 8 8 7 7 6 5 3 3 3 3 3 3 4 8 11 10 10 11 9 10
12 12 12 13 14 16 16 16 15 16 14 14 13 13 13 12 11 11 9 8 8 8 8 7 7 6 5 4 3 1 3 5 7 6 5 5 5 9 11 10 9 10 9
13 11 12 12 13 15 15 15 15 15 14 13 13 13 12 12 11 10 9 8 7 8 7 6 5 4 3 2 1 4 5 4 7 6 2 6 4 10 10 10 10 10 9
13 12 11 12 13 15 16 16 15 14 13 13 13 12 11 11 10 9 8 8 7 7 6 5 4 3 2 0 1 5 6 7 5 4 3 6 5 8 10 10 9 9 8
15 14 12 13 12 13 14 14 13 14 13 12 13 12 11 10 9 9 8 7 7 6 5 4 3 2 1 3 3 5 6 6 7 7 5 5 8 9 10 9 8 7 7
14 13 10 9 11 12 13 13 12 12 12 12 12 11 11 10 9 9 8 7 7 6 5 4 2 1 1 3 4 5 8 5 3 4 2 3 9 8 9 10 7 6 6
11 11 11 9 8 7 8 12 12 12 12 11 12 11 11 11 10 9 9 9 8 6 4 2 1 1 2 2 4 5 6 7 4 5 2 3 10 8 7 9 8 5 4
10 11 10 11 10 8 8 9 11 13 12 11 10 11 9 4 6 8 8 9 9 8 5 5 4 4 5 5 7 7 7 3 4 2 2 11 12 11 7 8 8 7 4
13 12 11 11 11 10 8 8 7 8 6 6 6 7 5 6 6 7 7 13 11 11 12 10 9 8 7 4 3 7 3 4 4 2 3 13 13 11 9 8 7 7 4
14 10 11 10 11 11 9 7 4 4 4 4 7 7 6 5 4 4 4 4 4 8 3 5 5 4 5 4 5 4 5 5 3 2 6 12 12 13 12 10 10 7 5
19 17 16 10 12 11 7 8 8 6 6 6 8 9 6 3 5 5 5 5 4 4 5 5 3 5 5 6 5 5 6 3 2 2 4 10 10 12 12 11 10 10 9
18 18 19 17 14 11 10 8 8 9 8 8 7 9 6 5 6 5 4 4 5 4 5 4 4 4 4 4 3 3 5 4 3 2 3 10 12 11 10 11 12 12 12
19 18 18 18 16 10 10 11 8 8 8 8 7 9 11 7 6 5 5 5 5 4 4 4 3 3 3 2 3 4 5 5 3 3 1 3 8 9 10 11 13 14 14
19 18 20 17 16 14 11 9 7 6 8 7 7 10 11 8 7 7 4 4 4 4 5 3 2 2 2 2 3 3 4 4 4 4 2 1 3 6 10 8 12 15 15
20 20 18 16 17 15 12 9 6 6 6 6 7 7 11 12 8 6 5 5 5 4 4 3 2 0 2 3 2 3 3 3 4 5 4 3 3 3 7 11 11 13 15
22 21 19 17 18 16 11 8 8 7 5 6 5 7 9 10 8 6 5 4 5 4 4 4 2 4 3 2 2 2 3 3 5 3 5 5 4 4 3 6 12 11 12
21 22 20 17 18 16 11 7 7 8 4 4 5 5 8 7 7 6 5 6 5 4 5 3 4 2 3 3 3 3 4 5 4 5 5 5 5 6 5 5 4 6 11
18 21 21 19 18 14 12 11 9 11 8 6 5 8 6 6 7 7 6 6 6 7 5 5 4 4 2 3 2 3 4 6 6 6 3 4 6 5 6 5 3 3 4
20 21 20 18 19 16 12 12 9 8 4 5 4 6 10 8 7 7 8 7 8 6 6 6 5 3 2 3 4 2 3 4 3 4 4 5 7 4 4 3 2 3 4
13 19 19 19 20 16 14 10 5 4 3 4 6 8 9 7 11 11 9 6 7 6 6 6 6 6 4 3 5 3 2 3 3 3 4 4 6 3 4 4 3 3 3
8 9 10 12 14 12 15 14 15 13 12 11 10 7 6 11 11 11 10 8 7 5 6 5 5 4 4 4 1 3 3 4 3 4 2 2 4 6 6 4 4 5 4
8 8 10 13 13 12 14 14 14 14 10 7 7 10 10 10 11 11 7 7 6 6 6 7 6 5 4 4 4 3 3 2 4 4 8 3 1 4 5 4 5 5 5
5 6 6 10 14 13 15 14 14 13 9 8 9 10 10 10 9 6 7 6 6 6 7 6 6 6 6 5 4 4 4 3 3 3 5 5 5 4 4 4 5 5 4
Wind_Direction
142 152 135 139 139 134 128 126 121 118 115 112 110 104 98 92 88 87 86 87 93 94 91 86 79 73 73 79 86 86 81 79 84 90 85 79 71 64 62 67 63 67 61
142 147 141 148 140 138 132 130 123 121 120 118 113 108 103 98 97 95 92 90 91 94 92 88 85 81 79 82 83 79 82 83 85 93 93 82 76 72 72 70 69 70 69
144 144 145 146 139 138 138 131 130 128 127 122 119 114 108 106 103 98 96 95 95 100 100 98 97 96 97 95 87 83 80 82 93 127 153 102 93 73 72 70 71 80 78
146 139 138 141 142 139 138 134 132 128 126 124 121 116 111 108 104 101 98 98 100 103 105 105 99 94 87 81 96 91 64 29 14 308 272 154 93 86 77 77 63 80 72
139 137 135 142 143 140 141 140 133 129 128 126 123 118 116 115 112 107 102 105 106 106 103 107 113 122 125 130 115 26 50 356 341 337 334 116 106 96 82 86 72 64 61
133 125 132 140 143 142 139 135 132 132 132 131 126 123 124 122 120 116 115 115 113 118 121 113 108 105 110 106 37 328 350 337 328 330 297 112 100 112 95 85 80 72 68
124 130 141 147 145 143 142 137 136 137 135 131 127 126 128 129 133 123 128 121 105 102 103 116 129 117 112 115 305 315 318 330 337 317 13 116 108 108 110 101 87 69 68
137 145 151 152 146 138 137 136 138 139 136 134 134 135 135 136 132 131 133 123 114 118 127 138 109 71 7 328 315 311 310 331 336 324 336 144 146 148 122 102 97 96 72
141 141 143 146 142 139 137 139 142 139 138 141 140 141 141 138 146 144 139 137 140 149 162 142 127 136 341 327 317 307 304 316 302 300 327 144 158 151 131 121 113 97 96
136 140 145 145 142 138 142 145 145 144 145 147 148 148 147 156 159 159 163 164 160 170 160 149 145 347 346 319 312 286 282 283 222 255 245 193 158 163 141 133 130 125 110
146 151 156 154 153 148 145 155 150 153 154 155 154 158 155 159 174 184 181 179 172 176 171 188 199 213 233 239 244 261 273 270 280 259 187 168 166 170 162 150 143 132 131
156 160 163 161 160 155 159 154 155 157 159 159 160 163 167 187 189 189 177 178 183 183 193 193 201 212 224 223 241 245 253 271 269 185 186 172 178 162 169 162 155 155 149
159 166 164 165 165 166 161 162 161 160 162 171 172 175 191 195 195 173 181 186 182 198 199 204 205 213 231 203 238 210 232 249 241 234 183 185 177 171 184 173 160 167 167
170 168 172 168 172 174 150 169 168 169 176 184 189 181 186 188 185 178 189 180 188 182 207 214 208 225 234 242 209 202 220 223 259 192 188 188 197 193 191 185 178 178 182
174 173 175 170 173 180 159 175 174 180 186 188 185 186 185 190 195 192 205 187 191 187 201 200 208 229 241 257 326 270 247 240 240 143 187 206 204 204 212 204 201 198 192
176 170 166 169 167 166 173 179 176 182 181 186 189 189 192 196 195 200 202 205 190 191 192 201 190 116 70 73 52 23 346 330 313 108 105 215 224 218 226 219 221 216 214
175 165 164 163 162 165 178 181 176 176 181 186 188 185 191 194 195 198 184 184 174 170 171 146 126 76 35 28 11 3 358 337 350 358 19 17 242 266 280 259 231 221 226
165 169 166 167 169 167 178 183 168 170 188 193 192 192 190 200 188 187 172 177 175 167 160 144 140 143 200 222 218 281 275 278 292 293 290 279 231 244 248 248 245 240 220
163 165 169 168 174 175 173 183 193 185 185 202 176 187 191 197 181 164 170 189 178 172 172 178 169 165 191 247 286 277 297 278 268 283 286 283 260 247 248 263 252 259 246
163 168 165 167 169 170 165 165 196 217 206 193 174 178 184 182 176 168 174 185 181 180 197 171 161 163 153 180 220 234 257 261 269 262 260 279 267 256 242 236 238 243 247
160 166 163 163 168 161 170 170 188 205 209 201 172 171 178 177 192 184 182 188 193 191 165 155 125 143 206 177 51 322 273 245 234 234 231 247 267 257 245 240 227 233 249
165 172 168 166 164 173 174 178 183 187 192 210 183 193 191 193 195 197 187 197 200 144 157 153 148 169 191 156 183 187 312 326 333 250 217 234 240 246 258 234 227 245 258
159 170 173 168 172 173 168 166 136 129 141 188 207 213 213 196 202 201 196 187 173 167 167 168 161 162 177 235 194 157 340 253 285 267 234 232 245 232 252 262 260 254 266
119 117 158 168 169 170 169 176 180 187 193 202 202 200 209 207 213 200 195 172 172 160 166 166 167 168 147 194 265 212 204 181 268 312 325 269 230 233 240 248 256 253 255
129 144 147 171 171 181 183 188 191 195 199 183 181 181 208 210 212 205 181 179 185 172 160 165 160 178 173 166 180 189 232 248 227 230 287 270 306 236 235 229 236 244 229
109 105 119 121 191 181 183 189 196 201 192 181 190 190 204 208 206 202 181 198 175 152 168 176 178 184 187 193 189 196 194 190 222 227 261 269 252 253 232 222 233 239 234